Location: 22
(39.7117°N, 89.5929°W)
Time: 11:18:38
(UTC-05:00)

deb Explorer IX - Visible Passes

Search period start: 27 September 2023 00:00
Search period end: 07 October 2023 00:00
Orbit: 528 x 966 km, 38.8° (Epoch: 27 September)

Date Brightness Start Highest point End Pass type
(mag) Time Alt. Az. Time Alt. Az. Time Alt. Az.
27 Sep ? 02:34:55 11° E 02:34:55 11° E 02:35:08 10° E visible
27 Sep ? 04:14:38 75° SE 04:14:38 75° SE 04:20:57 10° E visible
27 Sep ? 05:54:22 15° W 06:00:03 80° S 06:06:29 10° ESE visible
28 Sep ? 03:30:44 35° E 03:30:44 35° E 03:34:23 10° E visible
28 Sep ? 05:10:27 35° W 05:13:28 83° S 05:20:00 10° E visible
29 Sep ? 02:46:45 14° E 02:46:45 14° E 02:47:40 10° E visible
29 Sep ? 04:26:28 81° SW 04:26:46 84° S 04:33:22 10° E visible
29 Sep ? 06:06:11 11° W 06:12:21 62° SSW 06:18:41 10° ESE visible
30 Sep ? 03:42:25 41° E 03:42:25 41° E 03:46:34 10° E visible
30 Sep ? 05:22:08 29° W 05:25:35 70° SSW 05:32:04 10° ESE visible
01 Oct ? 02:58:20 17° E 02:58:20 17° E 02:59:38 10° E visible
01 Oct ? 04:38:02 69° WSW 04:38:42 76° S 04:45:16 10° ESE visible
01 Oct ? 06:17:58 10° W 06:24:00 40° SSW 06:29:58 10° SE visible
02 Oct ? 03:53:55 44° ESE 03:53:55 44° ESE 03:58:17 10° E visible
02 Oct ? 05:33:38 25° W 05:37:07 48° SSW 05:43:20 10° SE visible
03 Oct ? 03:09:47 17° E 03:09:47 17° E 03:11:09 10° E visible
03 Oct ? 04:49:29 54° SW 04:50:05 56° SSW 04:56:28 10° SE visible
04 Oct ? 04:05:20 38° SE 04:05:20 38° SE 04:09:23 10° ESE visible
04 Oct ? 05:45:02 20° WSW 05:47:59 28° SSW 05:53:25 10° SSE visible
05 Oct ? 03:21:11 14° ESE 03:21:11 14° ESE 03:22:06 10° ESE visible
05 Oct ? 05:00:53 35° SSW 05:00:53 35° SSW 05:06:38 10° SE visible
06 Oct ? 04:16:43 25° SSE 04:16:43 25° SSE 04:19:35 10° SE visible
06 Oct ? 05:56:26 13° WSW 05:58:13 14° SW 06:01:27 10° S visible
